| time (UTC) | temp F | wind direction | speed MPH | gust MPH | rain 1hr in | rain 24hr in | rain mn in | humidity % | barometer mb |
| 20260504234501 | 79 | 190 | 7.0 | 18.0 | 0.00 | 0.00 | 0.00 | 66 | 1007.0 |
| 20260504234002 | 79 | 190 | 7.0 | 18.0 | 0.00 | 0.00 | 0.00 | 66 | 1006.8 |
| 20260504233501 | 79 | 191 | 6.0 | 16.0 | 0.00 | 0.00 | 0.00 | 65 | 1006.9 |
| 20260504233002 | 80 | 188 | 6.0 | 14.0 | 0.00 | 0.00 | 0.00 | 65 | 1006.8 |
| 20260504232501 | 80 | 184 | 7.0 | 17.0 | 0.00 | 0.00 | 0.00 | 65 | 1006.8 |
| 20260504232002 | 80 | 181 | 7.0 | 17.0 | 0.00 | 0.00 | 0.00 | 65 | 1006.8 |
| 20260504231502 | 80 | 182 | 6.0 | 15.0 | 0.00 | 0.00 | 0.00 | 64 | 1006.9 |
| 20260504231002 | 81 | 190 | 7.0 | 16.0 | 0.00 | 0.00 | 0.00 | 64 | 1007.0 |
| 20260504230502 | 81 | 194 | 7.0 | 18.0 | 0.00 | 0.00 | 0.00 | 64 | 1007.2 |
| 20260504230002 | 81 | 186 | 7.0 | 18.0 | 0.00 | 0.00 | 0.00 | 63 | 1007.3 |
| 20260504225502 | 81 | 183 | 7.0 | 19.0 | 0.00 | 0.00 | 0.00 | 63 | 1007.4 |
| 20260504225002 | 81 | 186 | 7.0 | 19.0 | 0.00 | 0.00 | 0.00 | 63 | 1007.4 |
| 20260504224501 | 81 | 190 | 7.0 | 17.0 | 0.00 | 0.00 | 0.00 | 63 | 1007.3 |
| 20260504224002 | 81 | 191 | 8.0 | 19.0 | 0.00 | 0.00 | 0.00 | 63 | 1007.3 |
| 20260504222001 | 82 | 187 | 6.0 | 16.0 | 0.00 | 0.00 | 0.00 | 63 | 1007.3 |
| 20260504221502 | 81 | 184 | 6.0 | 15.0 | 0.00 | 0.00 | 0.00 | 63 | 1007.4 |
| 20260504220502 | 81 | 183 | 6.0 | 15.0 | 0.00 | 0.00 | 0.00 | 64 | 1007.7 |
| 20260504220002 | 81 | 186 | 6.0 | 14.0 | 0.00 | 0.00 | 0.00 | 64 | 1007.6 |
| 20260504215501 | 81 | 186 | 7.0 | 19.0 | 0.00 | 0.00 | 0.00 | 64 | 1007.7 |
| 20260504215002 | 81 | 186 | 7.0 | 19.0 | 0.00 | 0.00 | 0.00 | 63 | 1007.8 |
| 20260504214502 | 81 | 189 | 6.0 | 14.0 | 0.00 | 0.00 | 0.00 | 63 | 1007.9 |
| 20260504214001 | 81 | 185 | 7.0 | 17.0 | 0.00 | 0.00 | 0.00 | 63 | 1007.9 |
| 20260504213501 | 81 | 188 | 7.0 | 17.0 | 0.00 | 0.00 | 0.00 | 62 | 1008.1 |
| 20260504213002 | 82 | 189 | 7.0 | 14.0 | 0.00 | 0.00 | 0.00 | 61 | 1008.1 |
| 20260504212502 | 82 | 186 | 7.0 | 16.0 | 0.00 | 0.00 | 0.00 | 61 | 1008.2 |
| 20260504212002 | 82 | 189 | 7.0 | 16.0 | 0.00 | 0.00 | 0.00 | 60 | 1008.4 |
| 20260504211502 | 82 | 193 | 6.0 | 13.0 | 0.00 | 0.00 | 0.00 | 61 | 1008.3 |
| 20260504210003 | 82 | 189 | 6.0 | 16.0 | 0.00 | 0.00 | 0.00 | 60 | 1008.6 |
| 20260504205501 | 82 | 187 | 5.0 | 15.0 | 0.00 | 0.00 | 0.00 | 61 | 1008.7 |
| 20260504204502 | 82 | 193 | 5.0 | 15.0 | 0.00 | 0.00 | 0.00 | 60 | 1008.8 |
| 20260504204002 | 82 | 182 | 6.0 | 17.0 | 0.00 | 0.00 | 0.00 | 61 | 1009.0 |
| 20260504203502 | 81 | 182 | 7.0 | 17.0 | 0.00 | 0.00 | 0.00 | 61 | 1009.0 |
| 20260504203002 | 81 | 183 | 7.0 | 20.0 | 0.00 | 0.00 | 0.00 | 60 | 1009.1 |
| 20260504202001 | 81 | 193 | 8.0 | 17.0 | 0.00 | 0.00 | 0.00 | 58 | 1009.5 |
| 20260504201502 | 81 | 191 | 7.0 | 18.0 | 0.00 | 0.00 | 0.00 | 58 | 1009.6 |
| 20260504201002 | 82 | 190 | 7.0 | 18.0 | 0.00 | 0.00 | 0.00 | 58 | 1009.7 |
| 20260504200502 | 81 | 189 | 7.0 | 17.0 | 0.00 | 0.00 | 0.00 | 58 | 1009.8 |
| 20260504200002 | 81 | 183 | 6.0 | 14.0 | 0.00 | 0.00 | 0.00 | 58 | 1009.8 |
| 20260504195002 | 81 | 188 | 8.0 | 16.0 | 0.00 | 0.00 | 0.00 | 58 | 1009.9 |
| 20260504194502 | 81 | 185 | 8.0 | 17.0 | 0.00 | 0.00 | 0.00 | 57 | 1010.0 |
| 20260504194002 | 81 | 192 | 7.0 | 17.0 | 0.00 | 0.00 | 0.00 | 57 | 1010.0 |
| 20260504193502 | 82 | 193 | 6.0 | 15.0 | 0.00 | 0.00 | 0.00 | 57 | 1010.2 |
| 20260504193002 | 82 | 191 | 6.0 | 15.0 | 0.00 | 0.00 | 0.00 | 57 | 1010.2 |
| 20260504192502 | 81 | 191 | 6.0 | 15.0 | 0.00 | 0.00 | 0.00 | 57 | 1010.5 |
| 20260504192002 | 81 | 188 | 6.0 | 17.0 | 0.00 | 0.00 | 0.00 | 58 | 1010.4 |
| 20260504190502 | 80 | 192 | 8.0 | 20.0 | 0.00 | 0.00 | 0.00 | 57 | 1010.7 |
| 20260504190002 | 81 | 195 | 7.0 | 17.0 | 0.00 | 0.00 | 0.00 | 57 | 1010.7 |
| 20260504185502 | 81 | 196 | 5.0 | 15.0 | 0.00 | 0.00 | 0.00 | 56 | 1010.7 |
| 20260504185002 | 80 | 194 | 6.0 | 15.0 | 0.00 | 0.00 | 0.00 | 57 | 1010.9 |
| 20260504184502 | 80 | 192 | 8.0 | 18.0 | 0.00 | 0.00 | 0.00 | 57 | 1010.9 |
| 20260504184003 | 80 | 186 | 8.0 | 20.0 | 0.00 | 0.00 | 0.00 | 56 | 1011.0 |
| 20260504183502 | 80 | 190 | 7.0 | 20.0 | 0.00 | 0.00 | 0.00 | 56 | 1011.1 |
| 20260504183002 | 80 | 193 | 7.0 | 20.0 | 0.00 | 0.00 | 0.00 | 56 | 1011.1 |
| 20260504182502 | 80 | 187 | 7.0 | 20.0 | 0.00 | 0.00 | 0.00 | 55 | 1011.4 |
| 20260504182002 | 80 | 191 | 6.0 | 17.0 | 0.00 | 0.00 | 0.00 | 55 | 1011.4 |
| 20260504181502 | 80 | 193 | 6.0 | 14.0 | 0.00 | 0.00 | 0.00 | 54 | 1011.3 |
| 20260504181002 | 80 | 182 | 6.0 | 18.0 | 0.00 | 0.00 | 0.00 | 54 | 1011.3 |
| 20260504180502 | 80 | 185 | 5.0 | 18.0 | 0.00 | 0.00 | 0.00 | 54 | 1011.4 |
| 20260504180002 | 79 | 194 | 6.0 | 14.0 | 0.00 | 0.00 | 0.00 | 56 | 1011.4 |
| 20260504175502 | 79 | 191 | 7.0 | 20.0 | 0.00 | 0.00 | 0.00 | 55 | 1011.6 |
| 20260504175002 | 79 | 191 | 7.0 | 20.0 | 0.00 | 0.00 | 0.00 | 54 | 1011.8 |
| 20260504174502 | 78 | 194 | 8.0 | 16.0 | 0.00 | 0.00 | 0.00 | 55 | 1011.8 |
| 20260504174002 | 78 | 191 | 8.0 | 16.0 | 0.00 | 0.00 | 0.00 | 56 | 1011.8 |
| 20260504173503 | 78 | 185 | 7.0 | 17.0 | 0.00 | 0.00 | 0.00 | 55 | 1011.8 |
| 20260504173002 | 78 | 189 | 5.0 | 17.0 | 0.00 | 0.00 | 0.00 | 56 | 1011.9 |
| 20260504172503 | 78 | 197 | 6.0 | 14.0 | 0.00 | 0.00 | 0.00 | 56 | 1012.1 |
| 20260504172003 | 77 | 189 | 7.0 | 15.0 | 0.00 | 0.00 | 0.00 | 56 | 1012.3 |
| 20260504171502 | 77 | 184 | 6.0 | 15.0 | 0.00 | 0.00 | 0.00 | 56 | 1012.5 |
| 20260504170502 | 77 | 192 | 8.0 | 19.0 | 0.00 | 0.00 | 0.00 | 58 | 1012.7 |
| 20260504151003 | 70 | 193 | 8.0 | 16.0 | 0.00 | 0.00 | 0.00 | 69 | 1013.6 |
| 20260504150502 | 70 | 189 | 7.0 | 20.0 | 0.00 | 0.00 | 0.00 | 69 | 1013.4 |
| 20260504141002 | 67 | 198 | 5.0 | 12.0 | 0.00 | 0.00 | 0.00 | 73 | 1013.8 |
| 20260504140503 | 67 | 204 | 5.0 | 14.0 | 0.00 | 0.00 | 0.00 | 74 | 1014.0 |
| 20260504130503 | 63 | 196 | 4.0 | 10.0 | 0.00 | 0.00 | 0.00 | 79 | 1013.9 |
| 20260504110503 | 61 | 194 | 2.0 | 6.0 | 0.00 | 0.00 | 0.00 | 81 | 1013.4 |
| 20260504100503 | 61 | 194 | 3.0 | 6.0 | 0.00 | 0.00 | 0.00 | 78 | 1013.7 |
| 20260504082003 | 64 | 185 | 4.0 | 9.0 | 0.00 | 0.00 | 0.00 | 71 | 1014.1 |
| 20260504081504 | 63 | 193 | 4.0 | 10.0 | 0.00 | 0.00 | 0.00 | 71 | 1014.1 |
| 20260504081003 | 63 | 198 | 3.0 | 10.0 | 0.00 | 0.00 | 0.00 | 71 | 1014.1 |
| 20260504050004 | 67 | 184 | 2.0 | 6.0 | 0.00 | 0.00 | 0.00 | 64 | 1016.0 |
| 20260504045503 | 67 | 183 | 2.0 | 7.0 | 0.00 | 0.00 | 0.00 | 64 | 1016.0 |
| 20260504045004 | 67 | 182 | 2.0 | 7.0 | 0.00 | 0.00 | 0.00 | 64 | 1016.1 |
| 20260504044504 | 67 | 182 | 2.0 | 5.0 | 0.00 | 0.00 | 0.00 | 63 | 1016.1 |
| 20260504044002 | 68 | 188 | 2.0 | 7.0 | 0.00 | 0.00 | 0.00 | 63 | 1016.1 |
| 20260504043502 | 68 | 193 | 3.0 | 7.0 | 0.00 | 0.00 | 0.00 | 63 | 1016.1 |
| 20260504043002 | 68 | 192 | 2.0 | 5.0 | 0.00 | 0.00 | 0.00 | 63 | 1016.1 |
| 20260504042502 | 68 | 191 | 2.0 | 6.0 | 0.00 | 0.00 | 0.00 | 62 | 1016.1 |
| 20260504042002 | 68 | 189 | 3.0 | 7.0 | 0.00 | 0.00 | 0.00 | 62 | 1016.1 |
| 20260504041002 | 68 | 185 | 2.0 | 6.0 | 0.00 | 0.00 | 0.00 | 62 | 1016.1 |
| 20260504040002 | 68 | 183 | 2.0 | 7.0 | 0.00 | 0.00 | 0.00 | 61 | 1016.1 |
| 20260504035502 | 68 | 183 | 2.0 | 7.0 | 0.00 | 0.00 | 0.00 | 61 | 1016.1 |
| 20260504035002 | 68 | 191 | 2.0 | 7.0 | 0.00 | 0.00 | 0.00 | 61 | 1016.1 |
| 20260504034503 | 68 | 192 | 2.0 | 7.0 | 0.00 | 0.00 | 0.00 | 61 | 1016.2 |
| 20260504034002 | 69 | 185 | 2.0 | 6.0 | 0.00 | 0.00 | 0.00 | 61 | 1016.1 |
| 20260504032502 | 69 | 186 | 2.0 | 6.0 | 0.00 | 0.00 | 0.00 | 60 | 1016.0 |
| 20260504032003 | 69 | 184 | 2.0 | 4.0 | 0.00 | 0.00 | 0.00 | 60 | 1016.1 |
| 20260504031502 | 69 | 185 | 1.0 | 4.0 | 0.00 | 0.00 | 0.00 | 60 | 1016.0 |
| 20260504031002 | 69 | 188 | 1.0 | 4.0 | 0.00 | 0.00 | 0.00 | 59 | 1016.0 |
| 20260504030002 | 70 | 184 | 2.0 | 6.0 | 0.00 | 0.00 | 0.00 | 58 | 1015.8 |
| 20260504025002 | 70 | 181 | 2.0 | 6.0 | 0.00 | 0.00 | 0.00 | 58 | 1015.9 |
| 20260504024502 | 70 | 185 | 2.0 | 5.0 | 0.00 | 0.00 | 0.00 | 58 | 1015.9 |
| 20260504024002 | 70 | 189 | 2.0 | 6.0 | 0.00 | 0.00 | 0.00 | 57 | 1015.9 |
| 20260504023002 | 71 | 186 | 2.0 | 5.0 | 0.00 | 0.00 | 0.00 | 56 | 1016.0 |
| 20260504022502 | 71 | 182 | 2.0 | 5.0 | 0.00 | 0.00 | 0.00 | 56 | 1016.0 |
| 20260504022003 | 71 | 177 | 2.0 | 5.0 | 0.00 | 0.00 | 0.00 | 56 | 1015.9 |
| 20260504021502 | 72 | 178 | 2.0 | 5.0 | 0.00 | 0.00 | 0.00 | 56 | 1015.9 |
| 20260504021002 | 72 | 190 | 2.0 | 6.0 | 0.00 | 0.00 | 0.00 | 55 | 1015.8 |
| 20260504020503 | 72 | 202 | 2.0 | 6.0 | 0.00 | 0.00 | 0.00 | 55 | 1015.8 |
| 20260504020002 | 72 | 192 | 2.0 | 5.0 | 0.00 | 0.00 | 0.00 | 55 | 1015.8 |
| 20260504015502 | 72 | 176 | 2.0 | 5.0 | 0.00 | 0.00 | 0.00 | 54 | 1015.7 |
| 20260504015002 | 73 | 184 | 2.0 | 6.0 | 0.00 | 0.00 | 0.00 | 54 | 1015.7 |
| 20260504014502 | 73 | 190 | 1.0 | 6.0 | 0.00 | 0.00 | 0.00 | 53 | 1015.8 |
| 20260504014002 | 73 | 189 | 1.0 | 3.0 | 0.00 | 0.00 | 0.00 | 53 | 1015.7 |
| 20260504013502 | 74 | 187 | 1.0 | 5.0 | 0.00 | 0.00 | 0.00 | 52 | 1015.7 |
| 20260504013002 | 74 | 185 | 2.0 | 5.0 | 0.00 | 0.00 | 0.00 | 51 | 1015.7 |
| 20260504012502 | 74 | 187 | 2.0 | 5.0 | 0.00 | 0.00 | 0.00 | 51 | 1015.7 |
| 20260504012002 | 74 | 188 | 2.0 | 5.0 | 0.00 | 0.00 | 0.00 | 50 | 1015.7 |
| 20260504011002 | 75 | 189 | 2.0 | 6.0 | 0.00 | 0.00 | 0.00 | 48 | 1015.6 |
| 20260504010502 | 76 | 190 | 2.0 | 7.0 | 0.00 | 0.00 | 0.00 | 48 | 1015.5 |
| 20260504010002 | 76 | 186 | 3.0 | 7.0 | 0.00 | 0.00 | 0.00 | 47 | 1015.5 |
| 20260504005002 | 76 | 192 | 3.0 | 10.0 | 0.00 | 0.00 | 0.00 | 45 | 1015.6 |
| 20260504004502 | 77 | 194 | 2.0 | 9.0 | 0.00 | 0.00 | 0.00 | 45 | 1015.5 |
| 20260504004003 | 78 | 185 | 2.0 | 9.0 | 0.00 | 0.00 | 0.00 | 44 | 1015.5 |
| 20260504003502 | 78 | 188 | 4.0 | 11.0 | 0.00 | 0.00 | 0.00 | 43 | 1015.5 |
| 20260504003003 | 79 | 193 | 4.0 | 11.0 | 0.00 | 0.00 | 0.00 | 42 | 1015.5 |
| 20260504002503 | 80 | 199 | 4.0 | 8.0 | 0.00 | 0.00 | 0.00 | 42 | 1015.5 |
| 20260504001502 | 80 | 189 | 4.0 | 8.0 | 0.00 | 0.00 | 0.00 | 42 | 1015.7 |
| 20260504001002 | 80 | 192 | 4.0 | 12.0 | 0.00 | 0.00 | 0.00 | 42 | 1015.7 |
| 20260504000503 | 80 | 188 | 5.0 | 12.0 | 0.00 | 0.00 | 0.00 | 41 | 1015.7 |
| 20260504000003 | 80 | 187 | 5.0 | 12.0 | 0.00 | 0.00 | 0.00 | 41 | 1015.7 |
| 20260503235502 | 80 | 188 | 6.0 | 12.0 | 0.00 | 0.00 | 0.00 | 41 | 1015.7 |
| 20260503235003 | 80 | 187 | 5.0 | 14.0 | 0.00 | 0.00 | 0.00 | 42 | 1015.7 |